Year,Month,Day,Hour,Minute,Value (Times are PST for temperature in C)
2015,09,16,00,00,12.40
2015,09,16,00,01,12.40
2015,09,16,00,02,12.40
2015,09,16,00,03,12.40
2015,09,16,00,04,12.40
2015,09,16,00,05,12.40
2015,09,16,00,06,12.40
2015,09,16,00,07,12.40
2015,09,16,00,08,12.30
2015,09,16,00,09,12.30
2015,09,16,00,10,12.30
2015,09,16,00,11,12.30
2015,09,16,00,12,12.30
2015,09,16,00,13,12.30
2015,09,16,00,14,12.30
2015,09,16,00,15,12.30
2015,09,16,00,16,12.30
2015,09,16,00,17,12.30
2015,09,16,00,18,12.30
2015,09,16,00,19,12.30
2015,09,16,00,20,12.30
2015,09,16,00,21,12.30
2015,09,16,00,22,12.30
2015,09,16,00,23,12.30
2015,09,16,00,24,12.30
2015,09,16,00,25,12.30
2015,09,16,00,26,12.30
2015,09,16,00,27,12.30
2015,09,16,00,28,12.30
2015,09,16,00,29,12.30
2015,09,16,00,30,12.30
2015,09,16,00,31,12.30
2015,09,16,00,32,12.20
2015,09,16,00,33,12.20
2015,09,16,00,34,12.20
2015,09,16,00,35,12.20
2015,09,16,00,36,12.20
2015,09,16,00,37,12.20
2015,09,16,00,38,12.20
2015,09,16,00,39,12.20
2015,09,16,00,40,12.20
2015,09,16,00,41,12.20
2015,09,16,00,42,12.20
2015,09,16,00,43,12.20
2015,09,16,00,44,12.20
2015,09,16,00,45,12.20
2015,09,16,00,46,12.10
2015,09,16,00,47,12.10
2015,09,16,00,48,12.10
2015,09,16,00,49,12.10
2015,09,16,00,50,12.10
2015,09,16,00,51,12.10
2015,09,16,00,52,12.10
2015,09,16,00,53,12.10
2015,09,16,00,54,12.10
2015,09,16,00,55,12.00
2015,09,16,00,56,12.00
2015,09,16,00,57,12.00
2015,09,16,00,58,12.00
2015,09,16,00,59,12.00
2015,09,16,01,00,11.90
2015,09,16,01,01,11.90
2015,09,16,01,02,11.90
2015,09,16,01,03,11.90
2015,09,16,01,04,11.90
2015,09,16,01,05,11.90
2015,09,16,01,06,11.90
2015,09,16,01,07,11.90
2015,09,16,01,08,11.90
2015,09,16,01,09,11.90
2015,09,16,01,10,11.90
2015,09,16,01,11,11.90
2015,09,16,01,12,11.90
2015,09,16,01,13,11.90
2015,09,16,01,14,11.80
2015,09,16,01,15,11.80
2015,09,16,01,16,11.80
2015,09,16,01,17,11.80
2015,09,16,01,18,11.80
2015,09,16,01,19,11.80
2015,09,16,01,20,11.80
2015,09,16,01,21,11.80
2015,09,16,01,22,11.80
2015,09,16,01,23,11.80
2015,09,16,01,24,11.80
2015,09,16,01,25,11.80
2015,09,16,01,26,11.80
2015,09,16,01,27,11.80
2015,09,16,01,28,11.80
2015,09,16,01,29,11.80
2015,09,16,01,30,11.80
2015,09,16,01,31,11.80
2015,09,16,01,32,11.80
2015,09,16,01,33,11.80
2015,09,16,01,34,11.80
2015,09,16,01,35,11.80
2015,09,16,01,36,11.80
2015,09,16,01,37,11.80
2015,09,16,01,38,11.80
2015,09,16,01,39,11.80
2015,09,16,01,40,11.80
2015,09,16,01,41,11.70
2015,09,16,01,42,11.70
2015,09,16,01,43,11.70
2015,09,16,01,44,11.70
2015,09,16,01,45,11.70
2015,09,16,01,46,11.70
2015,09,16,01,47,11.70
2015,09,16,01,48,11.70
2015,09,16,01,49,11.70
2015,09,16,01,50,11.70
2015,09,16,01,51,11.70
2015,09,16,01,52,11.70
2015,09,16,01,53,11.70
2015,09,16,01,54,11.70
2015,09,16,01,55,11.70
2015,09,16,01,56,11.70
2015,09,16,01,57,11.70
2015,09,16,01,58,11.70
2015,09,16,01,59,11.70
2015,09,16,02,00,11.70
2015,09,16,02,01,11.60
2015,09,16,02,02,11.70
2015,09,16,02,03,11.60
2015,09,16,02,04,11.60
2015,09,16,02,05,11.60
2015,09,16,02,06,11.60
2015,09,16,02,07,11.60
2015,09,16,02,08,11.60
2015,09,16,02,09,11.60
2015,09,16,02,10,11.60
2015,09,16,02,11,11.60
2015,09,16,02,12,11.60
2015,09,16,02,13,11.60
2015,09,16,02,14,11.60
2015,09,16,02,15,11.60
2015,09,16,02,16,11.50
2015,09,16,02,17,11.50
2015,09,16,02,18,11.50
2015,09,16,02,19,11.50
2015,09,16,02,20,11.50
2015,09,16,02,21,11.50
2015,09,16,02,22,11.50
2015,09,16,02,23,11.40
2015,09,16,02,24,11.40
2015,09,16,02,25,11.40
2015,09,16,02,26,11.40
2015,09,16,02,27,11.40
2015,09,16,02,28,11.40
2015,09,16,02,29,11.30
2015,09,16,02,30,11.30
2015,09,16,02,31,11.30
2015,09,16,02,32,11.30
2015,09,16,02,33,11.30
2015,09,16,02,34,11.30
2015,09,16,02,35,11.30
2015,09,16,02,36,11.30
2015,09,16,02,37,11.30
2015,09,16,02,38,11.30
2015,09,16,02,39,11.30
2015,09,16,02,40,11.30
2015,09,16,02,41,11.30
2015,09,16,02,42,11.30
2015,09,16,02,43,11.30
2015,09,16,02,44,11.30
2015,09,16,02,45,11.30
2015,09,16,02,46,11.30
2015,09,16,02,47,11.30
2015,09,16,02,48,11.30
2015,09,16,02,49,11.30
2015,09,16,02,50,11.20
2015,09,16,02,51,11.20
2015,09,16,02,52,11.20
2015,09,16,02,53,11.20
2015,09,16,02,54,11.20
2015,09,16,02,55,11.20
2015,09,16,02,56,11.20
2015,09,16,02,57,11.20
2015,09,16,02,58,11.20
2015,09,16,02,59,11.20
2015,09,16,03,00,11.20
2015,09,16,03,01,11.20
2015,09,16,03,02,11.20
2015,09,16,03,03,11.20
2015,09,16,03,04,11.20
2015,09,16,03,05,11.20
2015,09,16,03,06,11.20
2015,09,16,03,07,11.20
2015,09,16,03,08,11.20
2015,09,16,03,09,11.20
2015,09,16,03,10,11.20
2015,09,16,03,11,11.20
2015,09,16,03,12,11.20
2015,09,16,03,13,11.20
2015,09,16,03,14,11.20
2015,09,16,03,15,11.20
2015,09,16,03,16,11.20
2015,09,16,03,17,11.20
2015,09,16,03,18,11.20
2015,09,16,03,19,11.20
2015,09,16,03,20,11.20
2015,09,16,03,21,11.20
2015,09,16,03,22,11.20
2015,09,16,03,23,11.20
2015,09,16,03,24,11.20
2015,09,16,03,25,11.20
2015,09,16,03,26,11.20
2015,09,16,03,27,11.20
2015,09,16,03,28,11.20
2015,09,16,03,29,11.10
2015,09,16,03,30,11.10
2015,09,16,03,31,11.10
2015,09,16,03,32,11.10
2015,09,16,03,33,11.10
2015,09,16,03,34,11.10
2015,09,16,03,35,11.10
2015,09,16,03,36,11.10
2015,09,16,03,37,11.10
2015,09,16,03,38,11.10
2015,09,16,03,39,11.10
2015,09,16,03,40,11.10
2015,09,16,03,41,11.10
2015,09,16,03,42,11.10
2015,09,16,03,43,11.10
2015,09,16,03,44,11.10
2015,09,16,03,45,11.10
2015,09,16,03,46,11.10
2015,09,16,03,47,11.10
2015,09,16,03,48,11.10
2015,09,16,03,49,11.10
2015,09,16,03,50,11.00
2015,09,16,03,51,11.00
2015,09,16,03,52,11.00
2015,09,16,03,53,11.00
2015,09,16,03,54,11.00
2015,09,16,03,55,11.00
2015,09,16,03,56,11.00
2015,09,16,03,57,10.90
2015,09,16,03,58,10.90
2015,09,16,03,59,10.90
2015,09,16,04,00,10.90
2015,09,16,04,01,10.90
2015,09,16,04,02,10.90
2015,09,16,04,03,10.80
2015,09,16,04,04,10.80
2015,09,16,04,05,10.80
2015,09,16,04,06,10.80
2015,09,16,04,07,10.80
2015,09,16,04,08,10.80
2015,09,16,04,09,10.80
2015,09,16,04,10,10.80
2015,09,16,04,11,10.80
2015,09,16,04,12,10.80
2015,09,16,04,13,10.80
2015,09,16,04,14,10.80
2015,09,16,04,15,10.80
2015,09,16,04,16,10.80
2015,09,16,04,17,10.80
2015,09,16,04,18,10.80
2015,09,16,04,19,10.90
2015,09,16,04,20,10.90
2015,09,16,04,21,10.90
2015,09,16,04,22,10.90
2015,09,16,04,23,10.90
2015,09,16,04,24,10.90
2015,09,16,04,25,10.90
2015,09,16,04,26,10.90
2015,09,16,04,27,10.90
2015,09,16,04,28,10.90
2015,09,16,04,29,10.90
2015,09,16,04,30,10.90
2015,09,16,04,31,10.90
2015,09,16,04,32,10.90
2015,09,16,04,33,10.90
2015,09,16,04,34,10.90
2015,09,16,04,35,11.00
2015,09,16,04,36,11.00
2015,09,16,04,37,11.00
2015,09,16,04,38,11.00
2015,09,16,04,39,11.00
2015,09,16,04,40,11.00
2015,09,16,04,41,11.00
2015,09,16,04,42,11.00
2015,09,16,04,43,11.00
2015,09,16,04,44,11.00
2015,09,16,04,45,11.00
2015,09,16,04,46,11.00
2015,09,16,04,47,10.90
2015,09,16,04,48,11.00
2015,09,16,04,49,10.90
2015,09,16,04,50,10.90
2015,09,16,04,51,10.90
2015,09,16,04,52,10.90
2015,09,16,04,53,10.90
2015,09,16,04,54,10.90
2015,09,16,04,55,10.90
2015,09,16,04,56,10.90
2015,09,16,04,57,10.90
2015,09,16,04,58,10.90
2015,09,16,04,59,10.90
2015,09,16,05,00,10.90
2015,09,16,05,01,10.90
2015,09,16,05,02,10.90
2015,09,16,05,03,10.90
2015,09,16,05,04,10.90
2015,09,16,05,05,10.90
2015,09,16,05,06,10.90
2015,09,16,05,07,10.80
2015,09,16,05,08,10.80
2015,09,16,05,09,10.80
2015,09,16,05,10,10.80
2015,09,16,05,11,10.80
2015,09,16,05,12,10.80
2015,09,16,05,13,10.80
2015,09,16,05,14,10.80
2015,09,16,05,15,10.80
2015,09,16,05,16,10.80
2015,09,16,05,17,10.70
2015,09,16,05,18,10.70
2015,09,16,05,19,10.70
2015,09,16,05,20,10.70
2015,09,16,05,21,10.70
2015,09,16,05,22,10.70
2015,09,16,05,23,10.70
2015,09,16,05,24,10.70
2015,09,16,05,25,10.70
2015,09,16,05,26,10.70
2015,09,16,05,27,10.70
2015,09,16,05,28,10.70
2015,09,16,05,29,10.70
2015,09,16,05,30,10.70
2015,09,16,05,31,10.70
2015,09,16,05,32,10.60
2015,09,16,05,33,10.60
2015,09,16,05,34,10.60
2015,09,16,05,35,10.60
2015,09,16,05,36,10.60
2015,09,16,05,37,10.60
2015,09,16,05,38,10.60
2015,09,16,05,39,10.60
2015,09,16,05,40,10.60
2015,09,16,05,41,10.60
2015,09,16,05,42,10.50
2015,09,16,05,43,10.50
2015,09,16,05,44,10.50
2015,09,16,05,45,10.50
2015,09,16,05,46,10.50
2015,09,16,05,47,10.50
2015,09,16,05,48,10.40
2015,09,16,05,49,10.40
2015,09,16,05,50,10.40
2015,09,16,05,51,10.40
2015,09,16,05,52,10.40
2015,09,16,05,53,10.40
2015,09,16,05,54,10.40
2015,09,16,05,55,10.40
2015,09,16,05,56,10.30
2015,09,16,05,57,10.30
2015,09,16,05,58,10.30
2015,09,16,05,59,10.30
2015,09,16,06,00,10.30
2015,09,16,06,01,10.30
2015,09,16,06,02,10.30
2015,09,16,06,03,10.30
2015,09,16,06,04,10.20
2015,09,16,06,05,10.20
2015,09,16,06,06,10.20
2015,09,16,06,07,10.20
2015,09,16,06,08,10.20
2015,09,16,06,09,10.20
2015,09,16,06,10,10.20
2015,09,16,06,11,10.10
2015,09,16,06,12,10.10
2015,09,16,06,13,10.10
2015,09,16,06,14,10.10
2015,09,16,06,15,10.10
2015,09,16,06,16,10.10
2015,09,16,06,17,10.10
2015,09,16,06,18,10.00
2015,09,16,06,19,10.00
2015,09,16,06,20,10.00
2015,09,16,06,21,10.00
2015,09,16,06,22,10.00
2015,09,16,06,23,9.90
2015,09,16,06,24,9.90
2015,09,16,06,25,9.90
2015,09,16,06,26,9.90
2015,09,16,06,27,9.90
2015,09,16,06,28,9.90
2015,09,16,06,29,9.90
2015,09,16,06,30,9.90
2015,09,16,06,31,9.90
2015,09,16,06,32,9.90
2015,09,16,06,33,9.90
2015,09,16,06,34,9.80
2015,09,16,06,35,9.80
2015,09,16,06,36,9.80
2015,09,16,06,37,9.80
2015,09,16,06,38,9.80
2015,09,16,06,39,9.80
2015,09,16,06,40,9.70
2015,09,16,06,41,9.70
2015,09,16,06,42,9.70
2015,09,16,06,43,9.70
2015,09,16,06,44,9.70
2015,09,16,06,45,9.70
2015,09,16,06,46,9.60
2015,09,16,06,47,9.60
2015,09,16,06,48,9.60
2015,09,16,06,49,9.60
2015,09,16,06,50,9.60
2015,09,16,06,51,9.60
2015,09,16,06,52,9.60
2015,09,16,06,53,9.70
2015,09,16,06,54,9.70
2015,09,16,06,55,9.70
2015,09,16,06,56,9.70
2015,09,16,06,57,9.70
2015,09,16,06,58,9.70
2015,09,16,06,59,9.80
2015,09,16,07,00,9.80
2015,09,16,07,01,9.80
2015,09,16,07,02,9.80
2015,09,16,07,03,9.80
2015,09,16,07,04,9.80
2015,09,16,07,05,9.80
2015,09,16,07,06,9.80
2015,09,16,07,07,9.80
2015,09,16,07,08,9.80
2015,09,16,07,09,9.90
2015,09,16,07,10,9.90
2015,09,16,07,11,9.90
2015,09,16,07,12,9.90
2015,09,16,07,13,9.80
2015,09,16,07,14,9.80
2015,09,16,07,15,9.80
2015,09,16,07,16,9.80
2015,09,16,07,17,9.80
2015,09,16,07,18,9.80
2015,09,16,07,19,9.80
2015,09,16,07,20,9.80
2015,09,16,07,21,9.80
2015,09,16,07,22,9.80
2015,09,16,07,23,9.80
2015,09,16,07,24,9.80
2015,09,16,07,25,9.70
2015,09,16,07,26,9.70
2015,09,16,07,27,9.70
2015,09,16,07,28,9.70
2015,09,16,07,29,9.70
2015,09,16,07,30,9.70
2015,09,16,07,31,9.70
2015,09,16,07,32,9.70
2015,09,16,07,33,9.70
2015,09,16,07,34,9.70
2015,09,16,07,35,9.70
2015,09,16,07,36,9.70
2015,09,16,07,37,9.80
2015,09,16,07,38,9.80
2015,09,16,07,39,9.80
2015,09,16,07,40,9.80
2015,09,16,07,41,9.80
2015,09,16,07,42,9.80
2015,09,16,07,43,9.80
2015,09,16,07,44,9.80
2015,09,16,07,45,9.90
2015,09,16,07,46,9.90
2015,09,16,07,47,9.90
2015,09,16,07,48,10.00
2015,09,16,07,49,10.00
2015,09,16,07,50,10.10
2015,09,16,07,51,10.10
2015,09,16,07,52,10.20
2015,09,16,07,53,10.20
2015,09,16,07,54,10.30
2015,09,16,07,55,10.30
2015,09,16,07,56,10.30
2015,09,16,07,57,10.40
2015,09,16,07,58,10.40
2015,09,16,07,59,10.50
2015,09,16,08,00,10.50
2015,09,16,08,01,10.60
2015,09,16,08,02,10.60
2015,09,16,08,03,10.70
2015,09,16,08,04,10.70
2015,09,16,08,05,10.80
2015,09,16,08,06,10.80
2015,09,16,08,07,10.90
2015,09,16,08,08,10.90
2015,09,16,08,09,11.00
2015,09,16,08,10,11.00
2015,09,16,08,11,11.10
2015,09,16,08,12,11.10
2015,09,16,08,13,11.20
2015,09,16,08,14,11.20
2015,09,16,08,15,11.30
2015,09,16,08,16,11.30
2015,09,16,08,17,11.40
2015,09,16,08,18,11.40
2015,09,16,08,19,11.50
2015,09,16,08,20,11.60
2015,09,16,08,21,11.60
2015,09,16,08,22,11.70
2015,09,16,08,23,11.80
2015,09,16,08,24,11.80
2015,09,16,08,25,11.90
2015,09,16,08,26,11.90
2015,09,16,08,27,12.00
2015,09,16,08,28,12.00
2015,09,16,08,29,12.10
2015,09,16,08,30,12.10
2015,09,16,08,31,12.10
2015,09,16,08,32,12.20
2015,09,16,08,33,12.20
2015,09,16,08,34,12.20
2015,09,16,08,35,12.30
2015,09,16,08,36,12.30
2015,09,16,08,37,12.30
2015,09,16,08,38,12.40
2015,09,16,08,39,12.40
2015,09,16,08,40,12.40
2015,09,16,08,41,12.50
2015,09,16,08,42,12.50
2015,09,16,08,43,12.50
2015,09,16,08,44,12.60
2015,09,16,08,45,12.60
2015,09,16,08,46,12.70
2015,09,16,08,47,12.80
2015,09,16,08,48,12.90
2015,09,16,08,49,12.90
2015,09,16,08,50,12.90
2015,09,16,08,51,12.90
2015,09,16,08,52,12.90
2015,09,16,08,53,12.90
2015,09,16,08,54,12.90
2015,09,16,08,55,12.90
2015,09,16,08,56,13.00
2015,09,16,08,57,13.00
2015,09,16,08,58,13.10
2015,09,16,08,59,13.10
2015,09,16,09,00,13.20
2015,09,16,09,01,13.20
2015,09,16,09,02,13.10
2015,09,16,09,03,13.00
2015,09,16,09,04,12.90
2015,09,16,09,05,13.00
2015,09,16,09,06,13.10
2015,09,16,09,07,13.10
2015,09,16,09,08,13.10
2015,09,16,09,09,13.00
2015,09,16,09,10,13.00
2015,09,16,09,11,12.90
2015,09,16,09,12,12.80
2015,09,16,09,13,12.70
2015,09,16,09,14,12.70
2015,09,16,09,15,12.70
2015,09,16,09,16,12.70
2015,09,16,09,17,12.70
2015,09,16,09,18,12.70
2015,09,16,09,19,12.70
2015,09,16,09,20,12.70
2015,09,16,09,21,12.60
2015,09,16,09,22,12.60
2015,09,16,09,23,12.70
2015,09,16,09,24,12.60
2015,09,16,09,25,12.60
2015,09,16,09,26,12.50
2015,09,16,09,27,12.40
2015,09,16,09,28,12.40
2015,09,16,09,29,12.40
2015,09,16,09,30,12.50
2015,09,16,09,31,12.50
2015,09,16,09,32,12.60
2015,09,16,09,33,12.60
2015,09,16,09,34,12.60
2015,09,16,09,35,12.70
2015,09,16,09,36,12.70
2015,09,16,09,37,12.70
2015,09,16,09,38,12.70
2015,09,16,09,39,12.70
2015,09,16,09,40,12.80
2015,09,16,09,41,12.80
2015,09,16,09,42,12.90
2015,09,16,09,43,12.90
2015,09,16,09,44,12.90
2015,09,16,09,45,12.90
2015,09,16,09,46,12.90
2015,09,16,09,47,12.90
2015,09,16,09,48,12.90
2015,09,16,09,49,12.90
2015,09,16,09,50,12.90
2015,09,16,09,51,12.90
2015,09,16,09,52,12.90
2015,09,16,09,53,12.90
2015,09,16,09,54,12.90
2015,09,16,09,55,13.00
2015,09,16,09,56,13.00
2015,09,16,09,57,13.10
2015,09,16,09,58,13.20
2015,09,16,09,59,13.20
2015,09,16,10,00,13.20
2015,09,16,10,01,13.20
2015,09,16,10,02,13.10
2015,09,16,10,03,13.10
2015,09,16,10,04,13.10
2015,09,16,10,05,13.20
2015,09,16,10,06,13.30
2015,09,16,10,07,13.30
2015,09,16,10,08,13.40
2015,09,16,10,09,13.60
2015,09,16,10,10,13.70
2015,09,16,10,11,13.70
2015,09,16,10,12,13.80
2015,09,16,10,13,13.80
2015,09,16,10,14,13.70
2015,09,16,10,15,13.60
2015,09,16,10,16,13.50
2015,09,16,10,17,13.40
2015,09,16,10,18,13.40
2015,09,16,10,19,13.30
2015,09,16,10,20,13.30
2015,09,16,10,21,13.20
2015,09,16,10,22,13.20
2015,09,16,10,23,13.20
2015,09,16,10,24,13.20
2015,09,16,10,25,13.30
2015,09,16,10,26,13.40
2015,09,16,10,27,13.60
2015,09,16,10,28,13.70
2015,09,16,10,29,13.80
2015,09,16,10,30,13.80
2015,09,16,10,31,13.80
2015,09,16,10,32,13.90
2015,09,16,10,33,14.00
2015,09,16,10,34,14.10
2015,09,16,10,35,14.30
2015,09,16,10,36,14.40
2015,09,16,10,37,14.50
2015,09,16,10,38,14.50
2015,09,16,10,39,14.60
2015,09,16,10,40,14.50
2015,09,16,10,41,14.50
2015,09,16,10,42,14.40
2015,09,16,10,43,14.40
2015,09,16,10,44,14.40
2015,09,16,10,45,14.40
2015,09,16,10,46,14.40
2015,09,16,10,47,14.40
2015,09,16,10,48,14.40
2015,09,16,10,49,14.40
2015,09,16,10,50,14.40
2015,09,16,10,51,14.40
2015,09,16,10,52,14.40
2015,09,16,10,53,14.40
2015,09,16,10,54,14.50
2015,09,16,10,55,14.50
2015,09,16,10,56,14.70
2015,09,16,10,57,14.90
2015,09,16,10,58,14.90
2015,09,16,10,59,15.00
2015,09,16,11,00,15.10
2015,09,16,11,01,15.00
2015,09,16,11,02,14.90
2015,09,16,11,03,14.90
2015,09,16,11,04,14.80
2015,09,16,11,05,14.80
2015,09,16,11,06,14.80
2015,09,16,11,07,14.70
2015,09,16,11,08,14.50
2015,09,16,11,09,14.50
2015,09,16,11,10,14.40
2015,09,16,11,11,14.50
2015,09,16,11,12,14.50
2015,09,16,11,13,14.50
2015,09,16,11,14,14.60
2015,09,16,11,15,14.70
2015,09,16,11,16,14.60
2015,09,16,11,17,14.70
2015,09,16,11,18,14.90
2015,09,16,11,19,15.00
2015,09,16,11,20,15.10
2015,09,16,11,21,15.20
2015,09,16,11,22,15.30
2015,09,16,11,23,15.40
2015,09,16,11,24,15.40
2015,09,16,11,25,15.50
2015,09,16,11,26,15.50
2015,09,16,11,27,15.50
2015,09,16,11,28,15.50
2015,09,16,11,29,15.40
2015,09,16,11,30,15.40
2015,09,16,11,31,15.20
2015,09,16,11,32,15.00
2015,09,16,11,33,14.80
2015,09,16,11,34,14.70
2015,09,16,11,35,14.70
2015,09,16,11,36,14.70
2015,09,16,11,37,14.50
2015,09,16,11,38,14.40
2015,09,16,11,39,14.30
2015,09,16,11,40,14.20
2015,09,16,11,41,14.20
2015,09,16,11,42,14.20
2015,09,16,11,43,14.20
2015,09,16,11,44,14.20
2015,09,16,11,45,14.30
2015,09,16,11,46,14.40
2015,09,16,11,47,14.40
2015,09,16,11,48,14.40
2015,09,16,11,49,14.30
2015,09,16,11,50,14.30
2015,09,16,11,51,14.30
2015,09,16,11,52,14.40
2015,09,16,11,53,14.50
2015,09,16,11,54,14.70
2015,09,16,11,55,14.70
2015,09,16,11,56,14.80
2015,09,16,11,57,14.80
2015,09,16,11,58,14.70
2015,09,16,11,59,14.80
2015,09,16,12,00,14.80
2015,09,16,12,01,14.80
2015,09,16,12,02,14.70
2015,09,16,12,03,14.70
2015,09,16,12,04,14.80
2015,09,16,12,05,14.80
2015,09,16,12,06,14.80
2015,09,16,12,07,14.80
2015,09,16,12,08,14.70
2015,09,16,12,09,14.70
2015,09,16,12,10,14.60
2015,09,16,12,11,14.60
2015,09,16,12,12,14.70
2015,09,16,12,13,14.80
2015,09,16,12,14,14.80
2015,09,16,12,15,14.90
2015,09,16,12,16,14.90
2015,09,16,12,17,15.00
2015,09,16,12,18,15.10
2015,09,16,12,19,15.20
2015,09,16,12,20,15.30
2015,09,16,12,21,15.40
2015,09,16,12,22,15.50
2015,09,16,12,23,15.60
2015,09,16,12,24,15.60
2015,09,16,12,25,15.50
2015,09,16,12,26,15.50
2015,09,16,12,27,15.30
2015,09,16,12,28,15.10
2015,09,16,12,29,15.00
2015,09,16,12,30,15.00
2015,09,16,12,31,15.00
2015,09,16,12,32,15.10
2015,09,16,12,33,15.20
2015,09,16,12,34,15.20
2015,09,16,12,35,15.00
2015,09,16,12,36,15.00
2015,09,16,12,37,14.90
2015,09,16,12,38,14.80
2015,09,16,12,39,14.80
2015,09,16,12,40,14.90
2015,09,16,12,41,15.00
2015,09,16,12,42,15.10
2015,09,16,12,43,15.20
2015,09,16,12,44,15.30
2015,09,16,12,45,15.40
2015,09,16,12,46,15.60
2015,09,16,12,47,15.80
2015,09,16,12,48,15.90
2015,09,16,12,49,16.00
2015,09,16,12,50,16.00
2015,09,16,12,51,15.90
2015,09,16,12,52,15.80
2015,09,16,12,53,15.70
2015,09,16,12,54,15.50
2015,09,16,12,55,15.40
2015,09,16,12,56,15.30
2015,09,16,12,57,15.20
2015,09,16,12,58,15.20
2015,09,16,12,59,15.20
2015,09,16,13,00,15.10
2015,09,16,13,01,15.10
2015,09,16,13,02,15.10
2015,09,16,13,03,15.10
2015,09,16,13,04,15.10
2015,09,16,13,05,15.10
2015,09,16,13,06,15.20
2015,09,16,13,07,15.30
2015,09,16,13,08,15.30
2015,09,16,13,09,15.30
2015,09,16,13,10,15.30
2015,09,16,13,11,15.30
2015,09,16,13,12,15.30
2015,09,16,13,13,15.20
2015,09,16,13,14,15.10
2015,09,16,13,15,15.10
2015,09,16,13,16,15.10
2015,09,16,13,17,15.20
2015,09,16,13,18,15.20
2015,09,16,13,19,15.10
2015,09,16,13,20,15.10
2015,09,16,13,21,15.10
2015,09,16,13,22,15.00
2015,09,16,13,23,15.00
2015,09,16,13,24,15.00
2015,09,16,13,25,15.10
2015,09,16,13,26,15.00
2015,09,16,13,27,14.90
2015,09,16,13,28,14.80
2015,09,16,13,29,14.90
2015,09,16,13,30,15.00
2015,09,16,13,31,15.10
2015,09,16,13,32,15.10
2015,09,16,13,33,15.00
2015,09,16,13,34,15.10
2015,09,16,13,35,15.20
2015,09,16,13,36,15.20
2015,09,16,13,37,15.20
2015,09,16,13,38,15.30
2015,09,16,13,39,15.30
2015,09,16,13,40,15.30
2015,09,16,13,41,15.30
2015,09,16,13,42,15.30
2015,09,16,13,43,15.30
2015,09,16,13,44,15.20
2015,09,16,13,45,15.20
2015,09,16,13,46,15.20
2015,09,16,13,47,15.20
2015,09,16,13,48,15.20
2015,09,16,13,49,15.20
2015,09,16,13,50,15.30
2015,09,16,13,51,15.30
2015,09,16,13,52,15.20
2015,09,16,13,53,15.20
2015,09,16,13,54,15.20
2015,09,16,13,55,15.10
2015,09,16,13,56,15.00
2015,09,16,13,57,14.90
2015,09,16,13,58,14.80
2015,09,16,13,59,14.80
2015,09,16,14,00,14.80
2015,09,16,14,01,14.80
2015,09,16,14,02,14.90
2015,09,16,14,03,15.00
2015,09,16,14,04,15.10
2015,09,16,14,05,15.20
2015,09,16,14,06,15.30
2015,09,16,14,07,15.40
2015,09,16,14,08,15.40
2015,09,16,14,09,15.30
2015,09,16,14,10,15.30
2015,09,16,14,11,15.30
2015,09,16,14,12,15.30
2015,09,16,14,13,15.30
2015,09,16,14,14,15.20
2015,09,16,14,15,15.20
2015,09,16,14,16,15.20
2015,09,16,14,17,15.30
2015,09,16,14,18,15.30
2015,09,16,14,19,15.40
2015,09,16,14,20,15.40
2015,09,16,14,21,15.40
2015,09,16,14,22,15.40
2015,09,16,14,23,15.40
2015,09,16,14,24,15.30
2015,09,16,14,25,15.20
2015,09,16,14,26,15.30
2015,09,16,14,27,15.40
2015,09,16,14,28,15.50
2015,09,16,14,29,15.50
2015,09,16,14,30,15.40
2015,09,16,14,31,15.40
2015,09,16,14,32,15.30
2015,09,16,14,33,15.30
2015,09,16,14,34,15.40
2015,09,16,14,35,15.50
2015,09,16,14,36,15.60
2015,09,16,14,37,15.50
2015,09,16,14,38,15.40
2015,09,16,14,39,15.40
2015,09,16,14,40,15.50
2015,09,16,14,41,15.60
2015,09,16,14,42,15.70
2015,09,16,14,43,15.80
2015,09,16,14,44,15.80
2015,09,16,14,45,15.80
2015,09,16,14,46,15.80
2015,09,16,14,47,15.80
2015,09,16,14,48,15.70
2015,09,16,14,49,15.60
2015,09,16,14,50,15.50
2015,09,16,14,51,15.40
2015,09,16,14,52,15.50
2015,09,16,14,53,15.50
2015,09,16,14,54,15.50
2015,09,16,14,55,15.60
2015,09,16,14,56,15.60
2015,09,16,14,57,15.70
2015,09,16,14,58,15.70
2015,09,16,14,59,15.80
2015,09,16,15,00,15.80
2015,09,16,15,01,15.70
2015,09,16,15,02,15.70
2015,09,16,15,03,15.70
2015,09,16,15,04,15.80
2015,09,16,15,05,16.00
2015,09,16,15,06,16.20
2015,09,16,15,07,16.30
2015,09,16,15,08,16.30
2015,09,16,15,09,16.30
2015,09,16,15,10,16.20
2015,09,16,15,11,16.10
2015,09,16,15,12,16.00
2015,09,16,15,13,15.90
2015,09,16,15,14,15.90
2015,09,16,15,15,15.90
2015,09,16,15,16,15.80
2015,09,16,15,17,15.70
2015,09,16,15,18,15.70
2015,09,16,15,19,15.70
2015,09,16,15,20,15.70
2015,09,16,15,21,15.70
2015,09,16,15,22,15.70
2015,09,16,15,23,15.70
2015,09,16,15,24,15.70
2015,09,16,15,25,15.80
2015,09,16,15,26,15.80
2015,09,16,15,27,15.70
2015,09,16,15,28,15.70
2015,09,16,15,29,15.60
2015,09,16,15,30,15.60
2015,09,16,15,31,15.60
2015,09,16,15,32,15.60
2015,09,16,15,33,15.60
2015,09,16,15,34,15.60
2015,09,16,15,35,15.70
2015,09,16,15,36,15.70
2015,09,16,15,37,15.70
2015,09,16,15,38,15.70
2015,09,16,15,39,15.70
2015,09,16,15,40,15.70
2015,09,16,15,41,15.80
2015,09,16,15,42,15.80
2015,09,16,15,43,15.90
2015,09,16,15,44,16.00
2015,09,16,15,45,16.00
2015,09,16,15,46,16.10
2015,09,16,15,47,16.10
2015,09,16,15,48,16.10
2015,09,16,15,49,16.10
2015,09,16,15,50,16.10
2015,09,16,15,51,16.10
2015,09,16,15,52,16.20
2015,09,16,15,53,16.20
2015,09,16,15,54,16.20
2015,09,16,15,55,16.30
2015,09,16,15,56,16.30
2015,09,16,15,57,16.30
2015,09,16,15,58,16.40
2015,09,16,15,59,16.40
2015,09,16,16,00,16.40
2015,09,16,16,01,16.40
2015,09,16,16,02,16.40
2015,09,16,16,03,16.40
2015,09,16,16,04,16.40
2015,09,16,16,05,16.40
2015,09,16,16,06,16.40
2015,09,16,16,07,16.40
2015,09,16,16,08,16.30
2015,09,16,16,09,16.30
2015,09,16,16,10,16.20
2015,09,16,16,11,16.20
2015,09,16,16,12,16.10
2015,09,16,16,13,16.00
2015,09,16,16,14,16.00
2015,09,16,16,15,15.90
2015,09,16,16,16,15.90
2015,09,16,16,17,15.90
2015,09,16,16,18,15.90
2015,09,16,16,19,15.90
2015,09,16,16,20,15.90
2015,09,16,16,21,15.90
2015,09,16,16,22,15.90
2015,09,16,16,23,15.90
2015,09,16,16,24,15.90
2015,09,16,16,25,15.90
2015,09,16,16,26,15.90
2015,09,16,16,27,15.80
2015,09,16,16,28,15.80
2015,09,16,16,29,15.80
2015,09,16,16,30,15.90
2015,09,16,16,31,15.90
2015,09,16,16,32,16.00
2015,09,16,16,33,16.10
2015,09,16,16,34,16.10
2015,09,16,16,35,16.10
2015,09,16,16,36,16.10
2015,09,16,16,37,16.10
2015,09,16,16,38,16.00
2015,09,16,16,39,16.00
2015,09,16,16,40,16.00
2015,09,16,16,41,16.00
2015,09,16,16,42,16.00
2015,09,16,16,43,16.00
2015,09,16,16,44,16.00
2015,09,16,16,45,16.00
2015,09,16,16,46,16.00
2015,09,16,16,47,16.10
2015,09,16,16,48,16.10
2015,09,16,16,49,16.10
2015,09,16,16,50,16.10
2015,09,16,16,51,16.10
2015,09,16,16,52,16.10
2015,09,16,16,53,16.10
2015,09,16,16,54,16.10
2015,09,16,16,55,16.20
2015,09,16,16,56,16.20
2015,09,16,16,57,16.20
2015,09,16,16,58,16.20
2015,09,16,16,59,16.30
2015,09,16,17,00,16.30
2015,09,16,17,01,16.30
2015,09,16,17,02,16.40
2015,09,16,17,03,16.40
2015,09,16,17,04,16.40
2015,09,16,17,05,16.40
2015,09,16,17,06,16.40
2015,09,16,17,07,16.40
2015,09,16,17,08,16.40
2015,09,16,17,09,16.40
2015,09,16,17,10,16.40
2015,09,16,17,11,16.30
2015,09,16,17,12,16.30
2015,09,16,17,13,16.30
2015,09,16,17,14,16.30
2015,09,16,17,15,16.30
2015,09,16,17,16,16.30
2015,09,16,17,17,16.30
2015,09,16,17,18,16.20
2015,09,16,17,19,16.20
2015,09,16,17,20,16.20
2015,09,16,17,21,16.20
2015,09,16,17,22,16.20
2015,09,16,17,23,16.20